Wetbulb
45.05 38.69 33.87 37.51 38.77 37.47 37.70 36.25 36.28 38.52 43.22 41.97 41.07 40.57 43.34 43.88 42.20 41.06 41.69 43.12 44.29 45.14 43.87 44.48 44.30 44.60 46.75 46.48 46.68 47.02 49.83 49.28 60.47 62.83 62.61 62.03 62.51 63.21 62.68 64.08 65.30 64.96 64.89 63.41
41.92 33.22 38.59 40.98 41.26 39.28 38.25 35.31 35.78 38.99 42.05 42.07 40.11 39.82 43.22 44.64 42.92 42.72 41.88 41.74 42.99 43.65 43.93 44.18 46.29 45.93 46.94 46.74 46.95 47.38 47.60 47.66 48.27 51.47 55.67 61.69 62.23 62.73 62.96 63.07 63.58 64.24 64.13 64.01
36.25 38.98 41.88 40.91 39.28 37.58 35.49 34.18 34.80 36.09 38.61 38.44 38.24 36.23 39.09 41.53 40.53 42.51 43.44 41.92 42.39 43.19 43.79 44.32 45.75 46.60 47.52 47.85 48.36 49.31 49.23 48.26 47.73 47.76 48.26 49.57 51.35 60.05 60.81 61.07 61.58 62.51 63.40 63.47
39.23 41.75 39.71 39.03 37.91 37.67 32.87 38.44 38.01 36.65 34.89 30.82 37.90 27.80 33.55 37.47 39.28 40.15 41.99 40.99 41.31 41.57 43.13 45.21 46.47 47.50 48.15 48.66 49.08 49.24 49.57 49.33 49.33 48.67 47.34 46.49 46.93 47.87 51.18 52.25 54.55 52.29 56.39 59.70
36.27 38.29 37.71 37.07 37.87 38.86 35.04 38.80 37.27 36.22 33.41 31.63 31.53 28.63 31.18 32.76 34.57 39.96 41.48 39.17 39.88 40.88 43.54 44.96 46.85 48.50 49.04 48.42 47.57 47.47 48.19 48.32 48.06 48.14 47.41 46.48 46.16 46.81 47.89 48.18 48.61 49.10 50.78 55.07
39.67 41.99 40.31 38.42 40.85 40.27 40.88 36.37 35.51 34.49 32.21 25.05 30.47 29.27 28.33 30.46 33.31 35.88 39.16 38.06 38.65 41.83 43.92 45.46 47.14 47.72 46.84 46.56 46.82 46.96 47.62 47.63 48.22 48.17 47.53 46.82 46.27 45.71 46.41 47.48 48.23 48.81 50.34 51.43
38.00 38.01 40.85 40.75 37.26 39.56 37.42 31.98 25.25 24.40 25.87 23.33 29.52 28.73 33.82 34.87 35.50 36.84 38.13 36.93 37.39 41.69 43.34 44.81 45.50 45.34 45.61 45.15 45.41 46.54 46.36 45.45 46.53 47.82 48.09 48.26 47.76 47.50 47.21 47.36 47.63 48.02 49.04 49.05
31.56 29.75 37.56 39.28 36.75 34.62 33.63 32.03 23.68 20.07 21.94 23.48 28.78 25.83 31.24 36.82 37.30 37.89 39.17 39.55 40.66 42.43 43.76 44.59 44.98 44.98 44.88 44.72 44.30 44.76 44.36 43.89 45.26 46.24 45.76 45.65 46.63 47.07 46.62 46.18 46.71 46.42 46.82 47.95
29.02 30.45 39.28 41.30 40.53 38.68 34.42 32.89 31.55 23.39 21.16 19.61 25.14 28.30 33.56 35.76 36.00 34.62 38.41 40.88 42.01 43.39 43.56 44.35 44.62 44.79 44.36 43.81 43.46 43.48 42.65 42.37 43.82 44.10 43.46 42.29 41.94 41.94 41.37 40.94 41.40 43.08 43.46 46.65
32.43 29.39 36.63 39.41 41.94 40.08 36.86 37.01 27.88 21.81 15.83 17.91 22.14 23.26 27.95 31.47 34.08 36.03 38.12 39.93 42.19 43.87 44.01 44.02 43.79 44.06 43.93 43.37 42.44 42.06 41.84 41.58 41.90 41.68 41.41 40.48 39.72 39.51 39.16 38.90 38.15 38.49 38.84 39.88
33.76 30.88 32.79 38.71 36.22 35.77 37.20 34.67 31.19 29.41 24.15 20.49 18.83 23.35 30.53 31.85 35.78 36.84 39.75 41.91 42.16 43.15 43.47 43.35 42.86 43.63 43.43 42.28 41.36 40.77 40.92 41.13 40.65 40.38 39.68 38.77 38.36 38.20 37.95 37.53 37.51 37.30 37.84 38.17
35.60 31.78 29.46 33.06 38.12 41.24 39.79 36.78 31.45 23.92 21.71 19.56 19.61 22.90 32.88 32.37 36.42 39.57 40.07 41.90 42.54 44.42 43.08 42.36 41.99 42.59 41.38 40.33 39.85 39.82 40.03 39.88 39.60 39.25 38.40 37.87 37.88 37.60 36.89 36.84 37.30 37.58 37.11 37.84
36.57 30.84 27.03 28.87 33.54 37.85 36.71 37.56 34.61 29.98 25.01 18.21 19.16 24.14 33.95 32.24 35.47 39.60 39.60 41.02 42.94 44.26 42.38 41.11 40.34 41.10 40.23 39.12 38.92 38.85 39.12 38.63 38.52 38.32 37.57 37.15 37.03 36.94 36.39 36.60 37.44 38.00 37.71 37.84
40.76 31.18 26.32 22.39 24.95 31.30 32.77 36.30 34.46 29.59 22.34 23.26 22.89 26.71 31.30 33.00 35.31 37.88 39.88 41.31 43.18 43.30 41.79 40.34 39.76 40.39 39.72 39.01 39.03 38.41 38.12 38.28 37.66 37.14 36.52 36.02 36.32 39.79 38.87 36.29 36.52 37.30 38.09 37.71
35.12 28.52 27.67 30.86 32.38 29.71 30.00 32.98 34.79 27.09 33.31 27.48 32.27 29.34 34.71 35.91 36.18 38.46 40.49 41.18 42.41 41.69 40.53 40.10 40.22 39.89 39.11 38.53 38.71 38.38 37.97 37.65 37.15 36.38 35.53 35.64 38.74 39.12 38.86 38.38 38.25 38.32 38.20 38.12
33.31 24.88 26.24 25.59 31.44 29.98 28.69 31.30 34.13 34.10 33.01 32.82 33.05 31.06 37.60 38.36 38.92 38.97 40.65 41.44 42.09 41.89 41.06 40.25 40.37 39.69 38.21 37.69 37.87 38.28 37.76 37.06 36.90 35.72 35.18 36.23 38.37 38.34 37.68 37.67 37.51 37.07 36.81 37.12
30.91 27.49 23.56 19.81 27.96 27.95 24.31 28.64 30.90 32.27 32.46 33.86 29.69 36.86 35.68 35.05 37.43 37.96 37.72 41.07 42.15 41.87 41.42 40.29 39.63 38.93 38.00 37.71 37.93 37.23 36.96 36.61 35.82 35.58 36.09 37.65 37.80 37.18 36.81 36.52 35.83 35.37 35.27 35.85
29.32 27.01 26.05 19.77 23.57 14.38 28.06 33.17 33.16 32.89 33.43 34.58 34.17 35.20 36.80 37.32 38.42 38.93 39.80 40.81 42.12 42.49 41.04 39.91 38.97 38.19 38.06 38.09 37.79 37.49 37.20 36.90 36.62 36.30 37.00 37.45 37.09 36.48 36.06 35.44 34.47 34.12 34.26 34.04
33.17 29.62 25.36 21.87 18.14 24.40 29.00 31.49 31.42 30.29 30.59 35.66 35.15 36.52 36.83 38.14 38.67 37.30 42.00 42.10 42.78 41.22 39.54 38.70 37.43 36.85 36.84 36.96 36.86 36.67 36.15 36.28 36.14 36.22 36.90 37.00 36.87 36.07 35.27 33.94 33.24 33.06 32.97 29.68
33.44 31.60 26.59 22.87 20.24 19.77 27.67 34.06 35.43 34.26 26.65 36.20 35.49 35.41 36.22 38.53 33.66 36.22 40.11 39.69 38.99 39.28 38.48 37.16 36.36 36.23 36.01 35.87 36.34 35.21 35.17 35.18 34.99 36.17 36.40 37.01 37.06 35.98 34.54 33.89 33.47 29.12 27.91 24.08
30.08 31.69 24.47 24.70 20.24 25.47 32.22 36.14 36.82 25.31 27.93 37.51 35.60 35.82 37.10 36.52 37.24 39.52 38.40 37.63 37.85 37.48 36.89 36.74 36.41 35.68 35.62 35.77 35.59 34.56 34.53 34.44 36.83 36.96 36.86 36.90 36.93 35.55 34.62 34.19 32.67 22.02 26.58 20.99
27.40 27.47 26.53 25.15 22.54 18.96 35.56 36.04 31.57 34.83 38.12 38.09 35.57 36.91 38.81 39.33 39.61 38.48 38.40 37.45 37.16 37.19 37.21 36.69 35.54 35.18 35.14 35.45 34.98 33.76 33.83 36.98 37.09 36.53 36.44 36.15 35.88 35.50 34.86 31.77 26.67 26.40 24.84 24.32
26.26 29.44 27.38 28.28 27.74 34.05 35.92 37.11 38.22 40.15 40.21 40.86 39.03 39.31 40.63 40.62 40.37 39.74 38.78 37.72 37.21 37.36 37.41 37.08 35.83 34.97 34.78 35.05 35.03 33.61 34.38 37.00 36.49 36.11 35.38 35.32 35.51 34.71 34.04 27.88 26.82 25.83 24.16 22.72
30.79 32.78 30.33 31.05 32.40 33.95 36.35 38.54 39.22 39.28 38.74 39.59 42.30 41.15 40.18 40.48 41.93 41.98 40.87 39.71 38.45 38.05 37.53 36.92 35.52 34.70 34.70 34.52 34.93 34.63 36.37 37.20 36.40 35.41 34.87 34.80 34.16 31.91 29.29 28.65 28.17 26.45 23.45 22.15
32.98 32.90 31.30 30.75 33.30 34.91 37.10 39.11 39.12 39.72 40.19 39.73 39.74 40.39 41.41 41.97 41.50 42.24 42.84 43.03 41.49 38.98 37.29 36.58 35.62 35.02 34.83 34.86 34.92 35.73 37.58 37.17 35.77 35.21 34.46 33.62 33.16 32.40 27.54 25.50 23.13 23.30 22.04 22.92
33.37 33.29 30.42 29.66 34.87 35.29 36.00 38.17 40.41 39.29 39.13 39.08 38.75 38.54 38.45 38.81 38.86 38.73 39.40 40.42 40.82 38.72 37.23 36.78 36.43 35.68 35.39 35.49 36.04 37.01 37.87 37.18 35.60 34.22 33.40 31.69 28.98 25.87 23.65 23.13 23.95 30.45 30.49 33.30
MSLP
1015.41 1014.94 1014.55 1014.34 1015.47 1015.02 1015.29 1015.51 1015.61 1015.33 1015.19 1015.80 1015.84 1016.09 1015.81 1015.91 1016.23 1016.11 1016.13 1016.01 1015.80 1015.67 1015.64 1015.65 1015.88 1015.91 1016.26 1016.49 1016.33 1016.24 1016.16 1016.27 1016.37 1016.62 1016.83 1017.04 1017.10 1017.05 1017.10 1017.01 1017.04 1017.20 1017.40 1017.53
1015.23 1014.91 1015.04 1015.49 1015.60 1015.22 1015.59 1015.89 1015.99 1015.77 1015.64 1016.07 1015.97 1016.20 1016.13 1015.67 1015.54 1015.51 1015.76 1015.86 1015.84 1015.81 1015.78 1016.05 1016.35 1016.49 1016.65 1016.82 1016.82 1016.74 1016.71 1016.68 1016.67 1016.72 1016.77 1016.82 1016.81 1016.75 1016.70 1016.68 1016.79 1016.97 1017.10 1017.25
1015.39 1014.95 1015.07 1015.36 1015.57 1015.60 1015.89 1015.88 1016.03 1015.80 1016.06 1016.31 1016.37 1016.52 1016.46 1015.51 1015.28 1015.24 1015.45 1015.67 1015.77 1015.82 1016.00 1016.35 1016.68 1016.84 1016.97 1017.17 1017.23 1017.22 1017.11 1017.00 1016.98 1016.99 1016.97 1017.00 1017.04 1017.04 1016.97 1016.92 1016.96 1016.81 1016.81 1016.83
1015.65 1014.73 1015.04 1015.43 1015.77 1015.78 1016.10 1016.05 1016.13 1016.27 1016.54 1016.93 1016.88 1016.96 1016.19 1015.64 1015.42 1015.24 1015.25 1015.49 1015.72 1015.72 1016.16 1016.59 1016.84 1017.03 1017.13 1017.28 1017.34 1017.43 1017.50 1017.44 1017.32 1017.17 1017.22 1017.40 1017.43 1017.49 1017.32 1017.24 1017.05 1016.97 1016.92 1016.81
1015.57 1014.47 1015.18 1015.72 1015.93 1015.93 1016.37 1016.23 1016.53 1016.90 1017.58 1017.89 1018.00 1018.24 1016.21 1015.85 1015.69 1014.79 1014.73 1015.43 1015.80 1015.78 1016.04 1016.61 1016.94 1017.14 1017.33 1017.47 1017.56 1017.56 1017.58 1017.69 1017.76 1017.70 1017.66 1017.76 1017.82 1017.82 1017.70 1017.66 1017.50 1017.32 1017.26 1017.12
1014.90 1015.13 1015.73 1016.09 1016.32 1016.25 1016.45 1016.96 1017.59 1018.21 1018.89 1018.97 1018.48 1018.48 1016.28 1015.49 1014.56 1014.62 1014.64 1015.21 1015.77 1016.09 1016.34 1016.84 1017.13 1017.35 1017.65 1017.83 1017.94 1017.94 1018.00 1018.20 1018.14 1018.10 1018.18 1018.23 1018.28 1018.29 1018.22 1018.25 1018.17 1017.98 1017.77 1017.66
1015.59 1016.43 1016.57 1016.53 1016.86 1016.86 1016.97 1017.65 1019.10 1019.97 1020.20 1019.49 1018.98 1018.61 1015.46 1014.61 1014.31 1014.35 1014.51 1014.97 1015.54 1016.14 1016.47 1016.96 1017.36 1017.66 1017.98 1018.19 1018.29 1018.37 1018.53 1018.72 1018.61 1018.56 1018.63 1018.65 1018.63 1018.61 1018.71 1018.77 1018.77 1018.62 1018.46 1018.35
1016.03 1017.52 1017.24 1017.25 1016.94 1016.95 1017.62 1018.08 1019.05 1019.90 1020.54 1020.00 1019.38 1017.39 1015.02 1014.10 1013.93 1014.02 1014.18 1014.62 1015.39 1016.32 1016.63 1017.00 1017.41 1017.80 1018.20 1018.44 1018.57 1018.76 1018.98 1019.13 1019.09 1019.07 1019.20 1019.17 1019.10 1019.16 1019.24 1019.24 1019.20 1019.20 1019.08 1018.89
1016.58 1017.51 1017.69 1017.40 1017.18 1017.39 1018.10 1018.48 1018.90 1020.06 1021.29 1020.90 1019.12 1017.00 1014.98 1014.06 1013.92 1014.05 1014.44 1014.90 1015.71 1016.22 1016.61 1017.06 1017.56 1017.91 1018.33 1018.62 1018.83 1019.02 1019.25 1019.51 1019.61 1019.72 1019.79 1019.85 1019.86 1019.80 1019.82 1019.77 1019.64 1019.62 1019.43 1019.14
1015.74 1017.09 1017.75 1017.85 1017.36 1017.65 1017.81 1018.49 1019.26 1020.27 1021.22 1020.90 1019.13 1017.82 1015.65 1014.57 1014.12 1014.16 1014.58 1015.05 1015.64 1016.23 1016.75 1017.21 1017.60 1017.99 1018.44 1018.69 1019.00 1019.26 1019.44 1019.76 1020.02 1020.14 1020.19 1020.39 1020.42 1020.38 1020.29 1020.23 1020.22 1020.08 1019.84 1019.51
1015.81 1016.52 1017.99 1017.84 1017.53 1017.14 1018.02 1018.19 1018.90 1019.64 1020.34 1020.26 1019.45 1017.05 1015.10 1014.57 1014.06 1014.08 1014.17 1014.73 1015.32 1015.97 1016.44 1017.04 1017.54 1018.02 1018.35 1018.77 1019.20 1019.53 1019.81 1020.06 1020.33 1020.46 1020.61 1020.74 1020.77 1020.73 1020.66 1020.63 1020.55 1020.38 1020.17 1019.90
1015.32 1016.30 1017.52 1017.84 1017.66 1017.42 1017.69 1018.03 1018.57 1019.30 1020.18 1020.53 1019.38 1016.53 1014.71 1014.27 1013.97 1013.80 1014.44 1014.72 1015.17 1015.68 1016.23 1016.96 1017.50 1017.98 1018.50 1019.00 1019.39 1019.67 1019.95 1020.24 1020.53 1020.81 1020.95 1021.02 1021.04 1021.03 1021.00 1020.99 1020.88 1020.72 1020.52 1020.26
1015.04 1016.27 1017.44 1018.08 1018.14 1017.80 1017.54 1017.80 1018.17 1018.72 1019.30 1019.35 1018.76 1016.15 1014.60 1014.18 1013.98 1013.81 1014.17 1014.71 1015.03 1015.68 1016.35 1017.09 1017.72 1018.19 1018.64 1019.16 1019.56 1019.91 1020.17 1020.51 1020.71 1020.92 1021.21 1021.41 1021.44 1021.37 1021.39 1021.37 1021.22 1021.00 1020.83 1020.67
1014.54 1016.01 1016.75 1017.07 1016.69 1016.61 1017.30 1017.33 1017.74 1018.10 1018.76 1018.18 1016.93 1015.51 1014.56 1014.18 1014.16 1013.96 1014.00 1014.44 1014.97 1015.58 1016.17 1016.96 1017.70 1018.13 1018.71 1019.21 1019.71 1020.06 1020.33 1020.43 1020.84 1021.24 1021.42 1021.51 1021.61 1021.48 1021.55 1021.68 1021.59 1021.40 1021.23 1021.03
1015.16 1016.33 1016.97 1016.89 1016.63 1016.65 1016.52 1016.41 1016.96 1017.25 1016.89 1016.72 1015.70 1014.98 1014.11 1013.61 1013.51 1013.53 1013.92 1014.58 1015.13 1015.64 1016.33 1016.82 1017.47 1018.19 1018.75 1019.21 1019.56 1020.03 1020.44 1020.62 1020.73 1021.22 1021.61 1021.60 1021.62 1021.68 1021.75 1021.70 1021.77 1021.79 1021.55 1021.54
1015.93 1016.75 1017.24 1017.46 1017.03 1016.80 1016.51 1016.13 1016.08 1016.24 1016.19 1015.70 1014.91 1014.14 1013.40 1013.18 1013.25 1013.69 1013.85 1014.40 1015.01 1015.48 1016.01 1016.65 1017.28 1017.91 1018.47 1019.01 1019.49 1019.92 1020.41 1020.64 1020.76 1021.17 1021.61 1021.67 1021.68 1021.81 1021.92 1021.87 1021.84 1021.89 1021.96 1021.99
1016.23 1017.10 1017.91 1018.06 1017.47 1016.87 1016.06 1014.60 1014.79 1014.82 1014.58 1014.41 1014.32 1012.63 1013.15 1013.26 1013.22 1013.36 1013.85 1014.16 1014.55 1014.98 1015.54 1016.25 1016.96 1017.62 1018.16 1018.70 1019.20 1019.89 1020.27 1020.61 1020.75 1021.11 1021.49 1021.56 1021.77 1021.90 1021.90 1021.97 1022.18 1022.34 1022.54 1022.54
1016.28 1017.21 1017.89 1018.37 1017.91 1016.81 1014.23 1013.63 1013.55 1013.64 1013.61 1013.54 1013.00 1012.80 1012.69 1012.68 1012.59 1012.88 1013.34 1013.74 1014.22 1014.77 1015.36 1016.04 1016.70 1017.35 1017.96 1018.47 1019.19 1019.88 1020.24 1020.38 1020.66 1021.03 1021.38 1021.58 1021.83 1021.93 1022.12 1022.38 1022.65 1022.84 1022.90 1023.03
1015.84 1016.92 1017.92 1018.18 1017.94 1015.88 1013.67 1013.34 1013.30 1013.36 1012.79 1012.48 1012.67 1012.72 1012.61 1012.74 1012.94 1013.14 1013.20 1013.49 1013.89 1014.46 1015.17 1015.90 1016.58 1017.39 1018.10 1018.62 1019.10 1019.69 1020.20 1020.48 1020.71 1020.98 1021.29 1021.47 1021.73 1022.03 1022.40 1022.75 1023.05 1023.24 1023.39 1023.62
1016.07 1016.41 1017.51 1017.93 1017.54 1015.95 1013.98 1012.97 1012.78 1012.96 1012.87 1012.06 1012.10 1012.33 1012.57 1013.01 1013.42 1013.42 1013.41 1013.82 1014.29 1014.74 1015.37 1016.10 1016.89 1017.50 1018.14 1018.67 1019.14 1019.71 1020.30 1020.45 1020.60 1020.71 1021.07 1021.43 1021.86 1022.22 1022.59 1022.96 1023.16 1023.63 1023.85 1023.94
1016.25 1016.60 1017.18 1017.45 1017.03 1015.23 1013.55 1012.91 1012.80 1013.21 1013.07 1011.94 1011.80 1012.07 1012.56 1013.05 1013.09 1013.13 1013.50 1014.19 1014.74 1015.25 1015.89 1016.48 1017.03 1017.52 1018.03 1018.65 1019.20 1019.68 1019.99 1020.43 1020.52 1020.68 1021.15 1021.57 1021.99 1022.38 1022.81 1023.22 1023.45 1023.69 1024.11 1024.30
1015.81 1016.22 1016.64 1016.66 1016.28 1014.89 1013.07 1012.97 1012.98 1012.59 1012.13 1011.93 1011.79 1011.96 1012.51 1012.77 1013.13 1013.56 1013.99 1014.57 1015.15 1015.60 1016.08 1016.62 1017.11 1017.64 1018.14 1018.67 1019.09 1019.62 1020.02 1020.24 1020.59 1020.91 1021.19 1021.63 1021.91 1022.50 1022.93 1023.29 1023.89 1023.89 1024.20 1024.57
1015.34 1015.02 1015.28 1015.18 1014.43 1013.18 1012.65 1012.45 1012.11 1012.05 1012.03 1011.98 1012.09 1012.19 1012.45 1012.96 1013.41 1013.89 1014.32 1014.76 1015.25 1015.59 1016.05 1016.63 1017.13 1017.67 1018.17 1018.57 1018.97 1019.49 1019.87 1020.26 1020.61 1021.02 1021.22 1021.49 1022.04 1022.52 1022.81 1023.43 1023.88 1024.04 1024.25 1024.52
1014.45 1014.18 1014.46 1014.31 1013.30 1012.89 1012.46 1012.19 1012.04 1012.08 1012.20 1012.30 1012.38 1012.63 1012.96 1013.18 1013.53 1014.00 1014.21 1014.77 1015.29 1015.68 1016.13 1016.67 1017.18 1017.65 1018.14 1018.51 1018.86 1019.24 1019.71 1020.07 1020.47 1020.83 1021.09 1021.45 1021.88 1022.45 1022.91 1023.33 1023.49 1023.66 1023.82 1023.91
1014.09 1014.08 1013.87 1013.61 1013.11 1012.70 1012.22 1012.04 1012.05 1012.37 1012.57 1012.73 1012.87 1013.01 1013.31 1013.49 1013.85 1014.05 1014.49 1014.78 1015.09 1015.56 1016.09 1016.50 1016.92 1017.36 1017.79 1018.24 1018.70 1019.10 1019.36 1019.69 1020.16 1020.52 1020.93 1021.35 1021.63 1022.11 1022.84 1023.01 1023.01 1023.05 1022.98 1022.99
1013.60 1013.20 1013.42 1013.03 1012.45 1012.37 1012.18 1011.98 1012.20 1012.68 1012.94 1013.16 1013.36 1013.69 1013.95 1014.08 1014.38 1014.55 1014.84 1014.97 1015.19 1015.47 1015.84 1016.26 1016.59 1016.97 1017.42 1017.88 1018.20 1018.52 1018.88 1019.22 1019.73 1020.17 1020.65 1021.07 1021.44 1022.01 1022.50 1022.61 1022.64 1022.49 1022.52 1022.41
Wind_Speed
9 4 22 22 8 1 7 7 12 1 8 12 11 6 7 6 5 7 9 8 8 7 1 3 5 6 7 6 6 5 5 4 1 2 2 2 4 3 3 4 5 5 4 5
6 12 13 9 8 4 10 5 8 2 4 10 4 7 7 7 6 6 8 9 9 5 5 5 5 5 5 4 5 6 5 4 3 1 0 1 1 2 2 1 3 5 6 6
2 10 10 10 5 6 2 7 5 6 4 3 4 5 6 10 3 4 6 6 6 9 8 6 5 5 5 5 5 5 4 4 3 2 1 1 2 1 1 1 2 2 5 5
2 12 12 12 5 5 4 3 5 7 6 4 4 5 8 7 11 7 10 8 8 8 5 5 5 4 5 3 4 5 4 4 4 5 3 1 1 2 1 2 2 4 4 4
4 18 14 10 6 5 3 2 5 3 3 3 2 1 7 1 8 18 13 8 8 8 9 9 7 6 5 4 4 4 5 6 5 4 3 2 1 1 2 2 5 5 4 6
6 4 5 3 4 3 4 6 7 5 4 3 5 5 6 7 7 4 9 9 9 9 8 7 5 6 5 4 5 5 6 6 6 6 5 3 2 1 2 2 3 3 3 4
12 4 3 3 7 2 3 5 3 2 1 5 2 5 13 6 6 6 8 7 8 7 8 8 8 6 5 5 4 4 6 6 6 6 6 6 6 6 5 3 3 4 4 3
4 6 2 4 3 5 3 4 6 6 4 3 3 10 7 6 5 7 7 7 9 9 8 8 8 7 6 5 5 6 6 6 6 6 7 6 7 4 4 5 3 3 3 3
5 4 2 4 1 2 4 4 3 7 3 4 6 8 9 4 5 2 6 8 9 9 8 8 7 7 6 5 5 6 6 6 6 6 5 6 6 6 5 5 4 3 4 4
3 6 1 1 2 2 2 2 2 3 4 4 4 5 8 4 7 6 9 9 8 7 7 7 6 7 5 5 5 6 5 6 5 5 5 5 5 5 5 4 5 5 5 5
5 3 3 6 6 7 2 3 2 3 4 5 2 6 7 6 7 10 11 11 10 9 8 7 6 6 6 6 6 5 5 6 5 5 4 5 5 5 5 4 4 4 4 5
3 5 5 2 3 3 4 4 6 6 5 1 2 8 2 6 7 8 6 8 8 7 8 7 7 7 6 6 5 5 4 5 5 4 4 5 5 5 5 5 5 5 5 5
6 2 4 1 2 2 7 6 4 4 4 6 6 6 2 4 4 6 9 7 7 7 7 6 6 6 6 6 6 5 5 5 5 5 5 4 5 5 5 5 5 5 5 5
5 4 5 8 6 5 7 9 7 6 5 4 7 6 4 2 6 5 6 7 7 8 8 6 6 6 6 6 6 5 5 5 5 5 5 5 3 4 5 4 5 5 5 5
4 4 3 2 1 3 3 9 17 9 14 10 7 9 6 6 10 9 8 6 7 7 7 7 6 6 6 6 6 5 5 5 5 5 4 4 3 4 4 5 5 5 6 7
2 1 3 3 2 4 4 7 12 16 8 8 11 8 6 2 4 5 8 8 7 8 8 7 7 7 7 7 6 5 5 5 5 5 5 3 4 4 4 5 6 6 6 6
3 5 3 4 3 3 6 9 11 7 7 11 12 14 4 6 7 9 9 9 10 8 8 8 8 7 7 7 7 6 6 5 6 5 4 4 4 4 5 6 6 6 5 5
5 4 3 2 3 1 6 1 4 11 4 11 6 5 6 7 10 6 6 8 8 8 8 7 6 5 5 6 6 6 6 5 5 5 5 5 4 5 5 5 6 4 3 4
3 4 2 3 3 7 4 2 4 6 7 13 15 11 5 3 3 1 4 4 6 7 5 5 6 5 6 7 7 6 5 5 5 5 5 5 5 5 5 5 5 3 3 4
4 5 5 1 2 5 4 2 3 3 6 4 8 8 7 6 5 4 5 4 5 6 5 7 7 5 6 6 7 7 6 5 5 5 5 5 5 5 6 5 5 2 3 2
2 1 4 3 2 8 6 3 4 5 6 4 4 6 6 5 4 2 6 4 4 5 6 6 6 6 6 6 6 6 5 5 4 6 6 5 5 5 5 4 2 3 4 2
6 5 4 3 3 7 3 2 4 6 3 3 1 5 6 4 4 5 6 6 6 6 6 6 5 5 5 6 6 6 5 5 6 6 6 6 6 5 5 5 3 3 3 3
3 7 5 8 7 5 5 5 2 3 1 2 2 2 5 6 4 5 5 6 6 6 5 5 5 5 5 5 6 6 5 7 6 6 6 6 6 5 5 5 5 3 3 3
4 4 3 1 3 5 5 3 2 2 1 2 4 5 2 4 6 4 5 4 3 4 5 4 5 5 5 5 5 5 7 8 8 8 7 6 6 5 4 3 4 4 4 4
4 4 4 4 6 5 5 6 3 3 4 4 4 3 4 4 3 2 1 3 4 5 5 5 6 6 6 7 6 7 8 9 8 7 6 6 5 6 5 5 5 4 5 5
5 7 5 6 6 4 5 1 5 7 5 5 4 4 3 4 3 2 1 2 2 5 4 6 7 7 7 9 9 9 10 10 9 9 6 6 4 4 4 4 3 6 7 8
Wind_Direction
207 166 184 191 176 264 138 121 194 151 181 186 215 178 240 203 193 230 232 229 239 222 110 60 93 112 99 50 65 50 90 22 135 156 174 194 223 211 223 222 228 229 228 218
203 189 178 132 164 112 145 139 178 116 151 186 186 211 232 261 236 203 231 223 218 199 132 110 96 88 77 88 63 54 46 28 43 85 231 215 227 244 254 243 225 215 215 218
214 154 161 157 161 112 140 151 165 159 114 56 113 290 215 248 242 229 235 232 217 194 167 147 136 118 116 105 93 77 39 22 31 22 17 17 7 352 324 311 298 271 242 227
240 159 140 139 148 117 100 174 133 121 124 200 159 265 258 226 243 241 234 218 210 170 148 153 151 140 126 101 88 86 85 66 29 13 34 39 203 224 278 326 327 326 353 322
206 143 139 145 153 125 99 143 162 118 104 122 235 165 256 176 223 234 228 216 210 185 166 168 164 142 114 96 72 54 64 50 45 58 66 62 17 309 340 345 340 337 357 21
84 63 74 117 69 129 120 80 57 62 94 279 193 177 256 213 209 218 225 209 190 180 162 157 140 126 106 74 67 57 69 45 41 58 57 82 107 161 82 21 20 357 10 19
95 51 52 45 88 47 86 83 52 53 215 222 254 193 248 248 234 224 240 206 180 170 152 151 152 145 120 96 75 82 76 54 43 56 52 51 64 70 71 52 38 25 8 5
105 142 49 337 126 158 147 144 151 179 195 236 117 242 243 231 238 252 236 179 155 160 164 163 163 156 147 129 106 95 84 69 55 56 48 39 42 53 51 42 34 33 17 9
123 83 84 28 88 94 176 165 189 104 21 54 222 293 293 227 266 206 165 142 165 166 164 163 160 156 151 136 125 121 105 83 68 68 61 48 40 45 42 30 26 23 6 1
139 104 358 115 58 59 75 148 134 3 143 238 259 271 248 271 257 194 161 167 161 161 157 163 162 151 145 135 121 104 99 93 88 76 64 61 50 45 45 43 32 21 10 8
135 106 144 143 197 190 157 191 151 134 153 203 254 258 216 263 250 201 179 168 167 169 170 165 162 154 144 133 130 122 112 109 89 77 70 64 46 42 43 41 27 20 21 19
158 110 148 151 332 209 225 228 190 151 223 255 154 272 310 288 247 159 169 164 170 173 165 166 163 152 148 146 138 131 117 105 103 99 84 70 58 47 44 34 24 26 36 30
183 106 102 66 336 211 224 193 206 112 71 205 144 259 333 1 167 160 162 178 169 160 150 157 156 168 165 158 151 143 136 125 115 105 92 69 61 60 48 35 26 28 37 41
102 135 164 192 203 147 194 200 197 170 191 179 224 277 316 309 218 203 183 182 171 170 168 173 174 177 170 160 156 150 145 139 129 110 99 88 68 70 77 53 40 40 39 44
103 163 131 301 168 117 222 205 208 203 218 203 228 216 242 233 214 196 181 169 156 172 179 187 181 179 169 161 155 153 154 144 133 118 108 104 85 75 78 78 70 60 55 52
29 181 90 319 196 204 245 222 214 221 239 255 256 260 236 272 128 168 180 174 187 196 192 188 184 174 174 173 168 159 156 148 132 124 123 118 97 97 90 84 77 65 58 51
119 134 101 261 333 317 289 217 192 200 197 209 223 243 194 200 194 203 203 192 199 194 184 186 188 186 176 174 165 169 158 144 134 134 143 123 117 110 94 90 86 71 61 59
129 109 114 182 21 318 243 262 208 212 222 215 260 197 201 217 219 203 203 194 199 187 182 180 171 163 162 151 148 144 152 150 141 136 133 131 133 120 107 100 92 78 62 55
142 127 108 144 189 284 293 188 159 167 272 216 226 224 209 151 101 293 195 199 204 175 158 167 155 150 154 155 147 141 148 149 147 143 150 145 141 129 122 113 107 87 81 68
94 95 114 120 157 240 261 318 160 123 292 310 218 201 177 148 170 239 179 149 132 131 138 145 145 137 145 155 145 145 164 159 163 151 144 139 142 143 139 136 127 113 110 88
160 117 169 193 245 286 249 246 143 83 250 308 215 187 155 175 192 176 128 104 123 131 142 137 145 157 165 151 150 154 155 180 159 140 142 140 141 137 134 128 119 112 120 86
166 169 195 158 201 275 200 94 175 224 281 300 43 160 159 139 114 131 132 138 148 152 147 153 150 162 159 157 151 157 173 153 146 153 148 147 137 151 152 147 172 144 153 164
218 183 188 178 212 230 226 220 242 198 243 20 68 83 125 131 157 161 169 164 181 179 166 163 164 161 163 164 165 163 177 156 156 163 162 154 156 154 161 160 179 159 174 199
240 172 207 90 260 247 254 246 254 214 139 76 79 102 101 127 138 157 139 159 185 188 189 169 163 177 188 178 172 172 164 166 169 176 175 172 166 157 177 194 197 192 200 214
210 135 192 254 284 298 258 227 187 136 114 103 72 71 90 101 97 114 192 223 211 211 193 176 188 192 197 176 185 179 176 170 178 178 174 181 175 189 196 213 202 206 222 192
188 195 171 224 225 184 246 233 173 156 167 157 131 110 71 75 100 71 267 268 242 220 193 196 199 190 190 187 188 184 184 181 181 186 191 193 187 194 201 200 229 240 227 228